Location: Kellogg
(38.0159°N, 90.0546°W)
Time: 23:00:09
(UTC+00:00)

Transit 4A - Pass Details

Date: 19 September 2024
Orbit: 864 x 978 km, 66.8° (Epoch: 12 October)

Event Time Altitude Azimuth Distance (km) Brightness Sun altitude
Rises 08:43:24 0° 236° (SW) 3,446 - -34.7°
Reaches altitude 10° 08:46:08 10° 246° (WSW) 2,522 - -34.2°
Maximum altitude 08:51:16 31° 308° (NW) 1,497 - -33.4°
Exits shadow 08:53:26 25° 345° (NNW) 1,739 9.4 -33.0°
Drops below altitude 10° 08:56:33 10° 10° (N) 2,590 10.7 -32.5°
Sets 08:59:24 0° 21° (NNE) 3,555 11.6 -32.0°
